Regional Weather Roundup
Issued by NWS

Home | Current Version | Previous Version | Graphics & Text | Print | Product List | Glossary On
Versions: 1 2 3 4 5 6 7 8 9 10 11 12 13 14 15 16 17 18 19 20 21 22 23 24 25 26 27 28 29 30 31 32 33 34 35 36 37 38 39 40 41 42 43 44 45 46 47 48 49 50
000
ASUS43 KBIS 302010
RWRND

NORTH DAKOTA REGIONAL WEATHER ROUNDUP
NATIONAL WEATHER SERVICE BISMARCK ND
300 PM CDT MON MAY 30 2016

NOTE: "FAIR" INDICATES FEW OR NO CLOUDS BELOW 12,000 FEET WITH NO
SIGNIFICANT WEATHER AND/OR OBSTRUCTIONS TO VISIBILITY.


NDZ001>003-009>011-017-302100-
NORTHWEST NORTH DAKOTA

CITY           SKY/WX    TMP DP  RH WIND       PRES   REMARKS
WILLISTON      LGT RAIN  59  52  77 N10       29.93F
MINOT          CLOUDY    69  50  50 W12       29.88S
MINOT AFB      CLOUDY    66  49  53 W15       29.87S
$$

NDZ018>021-031>035-040>046-302100-
SOUTHWEST NORTH DAKOTA

CITY           SKY/WX    TMP DP  RH WIND       PRES   REMARKS
BISMARCK       CLOUDY    79  58  48 VRB3      29.82F
DICKINSON      LGT RAIN  55  52  89 NE10      29.88F
GARRISON         N/A     58  53  84 NW12      29.89R
HETTINGER ARPT TSTM      54  51  90 NW17      29.90R FOG
$$

NDZ004>008-012>016-024-026-027-054-302100-
NORTHEAST NORTH DAKOTA

CITY           SKY/WX    TMP DP  RH WIND       PRES   REMARKS
GRAND FORKS    PTSUNNY   79  53  40 CALM      29.85F
GRND FRKS AFB  CLOUDY    77  54  45 SE6       29.86S
DEVILS LAKE    CLOUDY    72  54  53 S20G28    29.90R
$$

NDZ022-023-025-028>030-036>039-047>053-302100-
SOUTHEAST NORTH DAKOTA

CITY           SKY/WX    TMP DP  RH WIND       PRES   REMARKS
FARGO          MOSUNNY   85  45  24 SE13      29.84F
JAMESTOWN      CLOUDY    81  52  36 SE10G24   29.81F
$$





USA.gov is the U.S. government's official web portal to all federal, state and local government web resources and services.